sat.trackr.live / text

‹ back to catalog

STARLINK-31045

NORAD 58541 · 2023-192L

PAYLOAD ACTIVE UNKNOWN

§ Identity

Operator
Country
US
Launch date
2023-12-08
Launch site
AFWTR
Launch vehicle
Mass (kg)
RCS (m²)

Purposes: comms

External: N2YO · Heavens-Above · Gunter

§ Orbital elements

Epoch: 2026-09-20T12:22:00.060672Z

Period
93.85 min
Inclination
53.1612°
Eccentricity
0.0001054
Mean motion
15.34391788 rev/d
Perigee alt
462.0 km
Apogee alt
463.4 km
Semi-major
6,840.9 km
B*
-2.7609e-5
RAAN
313.8409°
Arg perigee
102.9243°
Mean anomaly
257.1878°
Rev number
15,473

§ Raw data

STARLINK-310451 58541U 23192L   26263.51527848 -.00001308  00000+0 -27609-4 0  99902 58541  53.1612 313.8409 0001054 102.9243 257.1878 15.34391788154739

JSON: /api/v1/satellites/58541 · /tle

For live sub-satellite position, see the globe view (requires WebGL).

§ Visibility from observer

Set your observer location to see the next 7 days of passes ≥ 10°. The values pass through the URL so the page stays shareable.

No JS? Fill the form by hand. The geolocation button needs JavaScript.